Weather History for KCEY - November, 2012

Change the Weather History Date:

Friday, November 23, 2012

  Actual Average (KPAH) Record (KPAH)
Temperature  
Mean Temperature 44 °F 45 °F  
Max Temperature 55 °F 55 °F 70 °F (2003)
Min Temperature 32 °F 35 °F 15 °F (1950)
Degree Days  
Heating Degree Days 22 20  
Month to date heating degree days 358  
Since 1 July heating degree days 625  
Cooling Degree Days 0 0  
Month to date cooling degree days 0  
Year to date cooling degree days 1538  
Moisture  
Dew Point 34 °F    
Average Humidity 59    
Maximum Humidity 94    
Minimum Humidity 41    
Precipitation  
Precipitation 0.01 in 0.15 in 4.06 in (1951)
Month to date precipitation 3.19  
Year to date precipitation 43.38  
Snow  
Snow 0.00 in 0.00 in 1.30 in (1950)
Month to date snowfall 0.0  
Since 1 July snowfall 0.1  
Since 1 September snowfall 0.1  
Snow Depth -    
Sea Level Pressure  
Sea Level Pressure 30.21 in    
Wind  
Wind Speed 11 mph (NW)    
Max Wind Speed 20 mph    
Max Gust Speed 24 mph    
Visibility 10 miles    
Events      
T = Trace of Precipitation, MM = Missing Value Source: NWS Daily Summary

Daily Weather History Graph

Daily Weather History Graph

Search for Another Location

Airport or City:

Trip Planner

Search our weather history database for the weather conditions in past years. The results will help you decide how hot, cold, wet, or windy it might be!

Date:

Astronomy

Nov. 23, 2012 Rise Set
Actual Time 6:40 AM CST 4:39 PM CST
Civil Twilight 6:11 AM CST 5:07 PM CST
Nautical Twilight 5:40 AM CST 5:39 PM CST
Astronomical Twilight 5:09 AM CST 6:10 PM CST
Moon 1:48 PM CST (11/23) 2:04 AM CST (11/23)
Length of Visible Light 10h 55m
Length of Day
9h 59m
Waxing Gibbous, 80% of the Moon is Illuminated
Nov 23
Waxing Gibbous
Nov 28
Full
Dec 6
Last Quarter
Dec 13
New
Dec 19
First Quarter

Hourly Weather History & Observations

Time (CST) Temp. Windchill Dew Point Humidity Pressure Visibility Wind Dir Wind Speed Gust Speed Precip Events Conditions
12:15 AM 55.4 °F - 41.0 °F 58% 30.10 in 10.0 mi SW 10.4 mph - N/A   Clear
12:35 AM 55.4 °F - 41.0 °F 58% 30.10 in 10.0 mi SW 9.2 mph 16.1 mph N/A   Clear
12:55 AM 55.4 °F - 41.0 °F 58% 30.09 in 10.0 mi SW 11.5 mph - N/A   Clear
1:15 AM 55.4 °F - 41.0 °F 58% 30.09 in 10.0 mi SW 10.4 mph - N/A   Mostly Cloudy
1:35 AM 55.4 °F - 41.0 °F 58% 30.10 in 10.0 mi SW 11.5 mph - N/A   Overcast
1:55 AM 55.4 °F - 42.8 °F 63% 30.11 in 10.0 mi SW 10.4 mph - N/A   Overcast
2:15 AM 55.4 °F - 42.8 °F 63% 30.11 in 10.0 mi SW 12.7 mph 16.1 mph N/A   Overcast
2:35 AM 55.4 °F - 42.8 °F 63% 30.10 in 10.0 mi SW 10.4 mph - N/A   Mostly Cloudy
2:55 AM 55.4 °F - 42.8 °F 63% 30.11 in 10.0 mi WSW 12.7 mph - N/A   Mostly Cloudy
3:15 AM 55.4 °F - 46.4 °F 72% 30.11 in 9.0 mi West 12.7 mph 17.3 mph N/A   Overcast
3:35 AM 53.6 °F - 48.2 °F 82% 30.11 in 5.0 mi West 10.4 mph - N/A   Overcast
3:55 AM 51.8 °F - 48.2 °F 88% 30.12 in 10.0 mi West 10.4 mph - 0.01 in   Overcast
4:15 AM 51.8 °F - 48.2 °F 88% 30.11 in 10.0 mi West 8.1 mph - N/A   Overcast
4:35 AM 51.8 °F - 48.2 °F 88% 30.12 in 10.0 mi West 10.4 mph - N/A   Overcast
4:55 AM 51.8 °F - 50.0 °F 94% 30.12 in 10.0 mi West 8.1 mph - N/A   Overcast
5:15 AM 51.8 °F - 50.0 °F 94% 30.13 in 10.0 mi WNW 6.9 mph - N/A   Overcast
5:35 AM 53.6 °F - 50.0 °F 88% 30.13 in 10.0 mi WNW 8.1 mph - N/A   Overcast
5:55 AM 53.6 °F - 50.0 °F 88% 30.14 in 10.0 mi NW 10.4 mph - N/A   Overcast
6:15 AM 53.6 °F - 48.2 °F 82% 30.15 in 10.0 mi NNW 18.4 mph 24.2 mph N/A   Overcast
6:35 AM 51.8 °F - 42.8 °F 71% 30.16 in 10.0 mi North 15.0 mph - N/A   Overcast
6:55 AM 50.0 °F - 39.2 °F 66% 30.18 in 10.0 mi North 13.8 mph - N/A   Overcast
7:15 AM 50.0 °F - 39.2 °F 66% 30.19 in 10.0 mi NNW 10.4 mph 16.1 mph N/A   Overcast
7:35 AM 48.2 °F - 39.2 °F 71% 30.21 in 10.0 mi NNW 12.7 mph 18.4 mph N/A   Overcast
7:55 AM 48.2 °F - 37.4 °F 66% 30.22 in 10.0 mi NNW 10.4 mph 16.1 mph N/A   Mostly Cloudy
8:15 AM 48.2 °F - 37.4 °F 66% 30.22 in 10.0 mi NNW 10.4 mph - N/A   Clear
8:35 AM 50.0 °F - 35.6 °F 58% 30.22 in 10.0 mi NNW 13.8 mph 19.6 mph N/A   Clear
8:55 AM 50.0 °F - 33.8 °F 54% 30.23 in 10.0 mi NNW 13.8 mph 19.6 mph N/A   Clear
9:15 AM 50.0 °F - 32.0 °F 50% 30.23 in 10.0 mi NNW 12.7 mph 17.3 mph N/A   Clear
9:35 AM 50.0 °F - 32.0 °F 50% 30.23 in 10.0 mi NNW 9.2 mph - N/A   Clear
9:55 AM 50.0 °F - 32.0 °F 50% 30.23 in 10.0 mi NNW 8.1 mph - N/A   Clear
10:15 AM 51.8 °F - 28.4 °F 41% 30.22 in 10.0 mi NNW 15.0 mph 20.7 mph N/A   Clear
10:35 AM 51.8 °F - 32.0 °F 47% 30.22 in 10.0 mi NW 15.0 mph 23.0 mph N/A   Clear
10:55 AM 53.6 °F - 32.0 °F 44% 30.22 in 10.0 mi NW 12.7 mph 21.9 mph N/A   Clear
11:15 AM 53.6 °F - 30.2 °F 41% 30.21 in 10.0 mi NW 16.1 mph - N/A   Clear
11:35 AM 53.6 °F - 30.2 °F 41% 30.21 in 10.0 mi NW 16.1 mph 23.0 mph N/A   Clear
11:55 AM 53.6 °F - 32.0 °F 44% 30.20 in 10.0 mi NNW 15.0 mph 19.6 mph N/A   Clear
12:15 PM 53.6 °F - 32.0 °F 44% 30.20 in 10.0 mi WNW 11.5 mph 18.4 mph N/A   Clear
12:35 PM 53.6 °F - 32.0 °F 44% 30.19 in 10.0 mi NW 17.3 mph - N/A   Clear
12:55 PM 53.6 °F - 32.0 °F 44% 30.19 in 10.0 mi NW 13.8 mph - N/A   Clear
1:15 PM 53.6 °F - 32.0 °F 44% 30.19 in 10.0 mi NW 19.6 mph 24.2 mph N/A   Clear
1:35 PM 53.6 °F - 32.0 °F 44% 30.19 in 10.0 mi NW 16.1 mph 24.2 mph N/A   Clear
1:55 PM 53.6 °F - 32.0 °F 44% 30.20 in 10.0 mi NW 17.3 mph 23.0 mph N/A   Clear
2:15 PM 51.8 °F - 32.0 °F 47% 30.20 in 10.0 mi NNW 13.8 mph 21.9 mph N/A   Clear
2:35 PM 50.0 °F - 32.0 °F 50% 30.20 in 10.0 mi NNW 17.3 mph 23.0 mph N/A   Clear
2:55 PM 50.0 °F - 32.0 °F 50% 30.21 in 10.0 mi NW 16.1 mph 21.9 mph N/A   Clear
3:15 PM 48.2 °F - 32.0 °F 54% 30.22 in 10.0 mi NW 19.6 mph 24.2 mph N/A   Clear
3:35 PM 48.2 °F - 32.0 °F 54% 30.23 in 10.0 mi NW 12.7 mph - N/A   Clear
3:55 PM 46.4 °F 40.7 °F 30.2 °F 53% 30.23 in 10.0 mi NW 12.7 mph 20.7 mph N/A   Clear
4:15 PM 46.4 °F 40.4 °F 28.4 °F 50% 30.24 in 10.0 mi NNW 13.8 mph 19.6 mph N/A   Clear
4:35 PM 46.4 °F 41.1 °F 28.4 °F 50% 30.24 in 10.0 mi NNW 11.5 mph - N/A   Clear
4:55 PM 44.6 °F 39.2 °F 28.4 °F 53% 30.24 in 10.0 mi NNW 10.4 mph 18.4 mph N/A   Clear
5:15 PM 44.6 °F 39.2 °F 28.4 °F 53% 30.26 in 10.0 mi NW 10.4 mph - N/A   Clear
5:35 PM 44.6 °F 39.2 °F 28.4 °F 53% 30.26 in 10.0 mi NW 10.4 mph - N/A   Clear
5:55 PM 41.0 °F 34.7 °F 28.4 °F 61% 30.26 in 10.0 mi NW 10.4 mph - N/A   Clear
6:15 PM 41.0 °F 35.8 °F 28.4 °F 61% 30.27 in 10.0 mi NW 8.1 mph - N/A   Clear
6:35 PM 41.0 °F 36.4 °F 28.4 °F 61% 30.27 in 10.0 mi NW 6.9 mph - N/A   Clear
6:55 PM 39.2 °F 33.6 °F 28.4 °F 65% 30.27 in 10.0 mi NW 8.1 mph - N/A   Clear
7:15 PM 39.2 °F 33.6 °F 28.4 °F 65% 30.27 in 10.0 mi NW 8.1 mph - N/A   Clear
7:35 PM 39.2 °F 34.2 °F 26.6 °F 61% 30.28 in 10.0 mi NNW 6.9 mph - N/A   Clear
7:55 PM 39.2 °F 33.6 °F 26.6 °F 61% 30.28 in 10.0 mi NNW 8.1 mph - N/A   Clear
8:15 PM 39.2 °F 33.6 °F 26.6 °F 61% 30.29 in 10.0 mi North 8.1 mph - N/A   Clear
8:35 PM 39.2 °F 30.8 °F 23.0 °F 52% 30.29 in 10.0 mi North 15.0 mph - N/A   Clear
8:55 PM 37.4 °F 28.9 °F 21.2 °F 52% 30.30 in 10.0 mi North 13.8 mph - N/A   Clear
9:15 PM 37.4 °F 29.8 °F 21.2 °F 52% 30.30 in 10.0 mi North 11.5 mph - N/A   Clear
9:35 PM 37.4 °F 31.4 °F 21.2 °F 52% 30.30 in 10.0 mi North 8.1 mph - N/A   Clear
9:55 PM 35.6 °F 30.7 °F 21.2 °F 56% 30.30 in 10.0 mi North 5.8 mph - N/A   Clear
10:15 PM 35.6 °F 29.9 °F 21.2 °F 56% 30.31 in 10.0 mi North 6.9 mph - N/A   Clear
10:35 PM 33.8 °F 27.7 °F 21.2 °F 60% 30.31 in 10.0 mi NNW 6.9 mph - N/A   Clear
10:55 PM 33.8 °F 28.6 °F 21.2 °F 60% 30.32 in 10.0 mi NNW 5.8 mph - N/A   Clear
11:15 PM 32.0 °F 26.4 °F 21.2 °F 64% 30.32 in 10.0 mi NNW 5.8 mph - N/A   Clear
11:35 PM 32.0 °F 23.6 °F 19.4 °F 60% 30.31 in 10.0 mi North 10.4 mph - N/A   Clear
11:55 PM 32.0 °F 23.6 °F 19.4 °F 60% 30.31 in 10.0 mi NNW 10.4 mph 18.4 mph N/A   Clear